Regional Weather Roundup
Issued by NWS

Home | Current Version | Previous Version | Graphics & Text | Print | Product List | Glossary On
Versions: 1 2 3 4 5 6 7 8 9 10 11 12 13 14 15 16 17 18 19 20 21 22 23 24 25 26 27 28 29 30 31 32 33 34 35 36 37 38 39 40 41 42 43 44 45 46 47 48 49 50
000
ASUS45 KSLC 030510
RWRUT

UTAH REGIONAL WEATHER ROUNDUP
NATIONAL WEATHER SERVICE SALT LAKE CITY UT
1100 PM MDT TUE JUN 02 2015

UTZ001>011-023>025-030600-

NORTHERN UTAH

CITY           SKY/WX    TMP DP  RH WIND       PRES   REMARKS
BRIGHAM CITY   CLEAR     68  46  46 CALM      29.93S
HILL AFB       CLEAR     63  39  40 SE10      29.94S
LOGAN          CLEAR     64  48  56 SE3       29.95R
OGDEN          CLEAR     61  45  55 S3        29.92S
PROVO AIRPORT  PTCLDY    66  46  48 NW7       29.92S
SALT LAKE CITY PTCLDY    69  45  41 SE7       29.91R
VERNAL         PTCLDY    65  38  36 CALM      29.95R
WENDOVER       CLEAR     72  30  21 N10       29.92S
HEBER CITY     PTCLDY    54  37  54 E5        29.99S
WEST JORDAN    CLEAR     66  41  39 W8        29.94S

$$

UTZ012>022-026-027-030600-

SOUTHERN/CENTRAL UTAH

CITY           SKY/WX    TMP DP  RH WIND       PRES   REMARKS
BLANDING       CLEAR     62  23  23 N7        30.07F
BRYCE CANYON   CLEAR     42  28  57 W8        30.15R
CEDAR CITY     CLEAR     62  25  24 SE10      30.01R
DELTA          CLEAR     67  16  13 SE13      29.91S
HANKSVILLE     CLEAR     77  14   9 W8        29.88S
MILFORD        CLEAR     67  22  18 S14       29.95R
MOAB/CYNLANDS  CLEAR     69  15  12 SW3       29.87S
PRICE          CLEAR     64  24  21 N9        29.98R
ST GEORGE      PTCLDY    77  18  10 S7        29.86R
KANAB          CLEAR     59  30  33 CALM      30.01R

$$

REGIONAL REPORTS     COLORADO/ARIZONA

CITY           SKY/WX    TMP DP  RH WIND       PRES   REMARKS
CRAIG, CO      CLEAR     49  38  65 SE3       30.03R
GRAND JUNCTION CLEAR     63  24  22 E6        29.93R
RIFLE          CLEAR     59  36  42 CALM      29.99R
MONTROSE       CLEAR     63  27  25 SE10      30.04R
CORTEZ         CLEAR     54  33  45 NE8       30.05R
PAGE, AZ       CLEAR     81  12   7 W7        29.91R
GRAND CANYON   CLEAR     43  17  35 CALM      30.13R
KINGMAN        CLEAR     72  16  12 S9        29.92R
FLAGSTAFF      CLEAR     49  22  34 CALM      30.18R

$$

REGIONAL REPORTS    NEVADA/IDAHO/WYOMING

CITY           SKY/WX    TMP DP  RH WIND       PRES   REMARKS
LAS VEGAS, NV  CLEAR     86  21   9 S12       29.74R
ELY            CLEAR     54  37  52 S5        30.02R
ELKO           CLEAR     59  33  37 SE3       29.99R
POCATELLO, ID  MOCLDY    58  48  69 S8        29.99R
BURLEY         CLEAR     56  45  66 SE3       29.96R
EVANSTON, WY   PTCLDY    57  36  45 CALM      30.10S
ROCK SPRINGS   CLEAR     59  31  34 NW9       30.08R
KEMMERER       PTCLDY    50  36  57 N7        30.12R

$$



USA.gov is the U.S. government's official web portal to all federal, state and local government web resources and services.